Dades meteomassalio
Diari Summary for Noviembre 17, 2017 Units:  Metric    English   Both
« Previous Day
Next Day »
Diari Semanal Mensual Anual Personalitzat
  Maxima: Minima: Mijana:
Temperatura: -17.8 °C -19.3 °C -15 °C
Rosada: -17.8 °C -20.9 °C -19.5 °C
Humitat: Humidity % 33 % 59 %
Velocitat del vent: 0 km/h 0 km/h 5.5 km/h
Racha vent: 0 km/h - -
Vent:- - NW
Pressio: 0 hPa 34625.2 hPa -
Pluja: 0 mm    
Historical Graphs
 
 
Tabular Data for Noviembre 17, 2017
Time Temperature Dew Point Pressure Wind Wind Speed Wind Gust Humidity Rainfall Rate (Hourly) solar Conditions
-17.8 °C -17.8 °C 0 hPa Calm     Humidity % 0 mm SolarRadiationWatts/m^2 W/m2 Conditions
00:01 -18.1 °C -20.9 °C 34716.7 hPa Calm     69 % 0 mm 0.0 W/m2 CLR
00:06 -18.1 °C -20.9 °C 34716.7 hPa Calm     69 % 0 mm 0.0 W/m2 CLR
00:11 -18.1 °C -20.7 °C 34703.1 hPa Calm     70 % 0 mm 0.0 W/m2 CLR
00:16 -18.1 °C -20.7 °C 34716.7 hPa Calm     70 % 0 mm 0.0 W/m2 CLR
00:26 -17.8 °C -20.3 °C 34716.7 hPa Calm     71 % 0 mm 0.0 W/m2 CLR
00:31 -17.8 °C -20.2 °C 34716.7 hPa Calm     72 % 0 mm 0.0 W/m2 CLR
00:36 -17.8 °C -20.2 °C 34716.7 hPa Calm     72 % 0 mm 0.0 W/m2 CLR
00:42 -18.1 °C -20.6 °C 34716.7 hPa Calm     72 % 0 mm 0.0 W/m2 CLR
00:46 -18.1 °C -20.7 °C 34716.7 hPa Calm     71 % 0 mm 0.0 W/m2 CLR
00:51 -18.1 °C -20.7 °C 34716.7 hPa Calm     71 % 0 mm 0.0 W/m2 CLR
00:57 -18.4 °C -20.8 °C 34716.7 hPa Calm     72 % 0 mm 0.0 W/m2 CLR
01:01 -18.4 °C -20.8 °C 34716.7 hPa Calm     72 % 0 mm 0.0 W/m2 CLR
01:07 -18.4 °C -20.8 °C 34716.7 hPa Calm     72 % 0 mm 0.0 W/m2 CLR
01:12 -18.1 °C -20.6 °C 34703.1 hPa Calm     72 % 0 mm 0.0 W/m2 CLR
01:22 -18.1 °C -20.4 °C 34703.1 hPa Calm     73 % 0 mm 0.0 W/m2 CLR
01:27 -18.4 °C -20.7 °C 34703.1 hPa Calm     73 % 0 mm 0.0 W/m2 CLR
01:32 -18.1 °C -20.3 °C 34703.1 hPa Calm     74 % 0 mm 0.0 W/m2 CLR
01:37 -18.1 °C -20.3 °C 34703.1 hPa Calm     74 % 0 mm 0.0 W/m2 CLR
01:42 -18.1 °C -20.3 °C 34703.1 hPa Calm     74 % 0 mm 0.0 W/m2 CLR
01:47 -18.1 °C -20.3 °C 34693 hPa Calm     74 % 0 mm 0.0 W/m2 CLR
01:52 -18.1 °C -20.4 °C 34703.1 hPa Calm     73 % 0 mm 0.0 W/m2 CLR
01:57 -18.1 °C -20.4 °C 34703.1 hPa Calm     73 % 0 mm 0.0 W/m2 CLR
02:02 -18.4 °C -20.7 °C 34703.1 hPa Calm     74 % 0 mm 0.0 W/m2 CLR
02:07 -18.4 °C -20.7 °C 34693 hPa Calm     74 % 0 mm 0.0 W/m2 CLR
02:12 -18.4 °C -20.6 °C 34693 hPa Calm     75 % 0 mm 0.0 W/m2 CLR
02:17 -18.4 °C -20.6 °C 34693 hPa Calm     75 % 0 mm 0.0 W/m2 CLR
02:22 -18.1 °C -20.2 °C 34693 hPa Calm     75 % 0 mm 0.0 W/m2 CLR
02:27 -18.1 °C -20.2 °C 34693 hPa Calm     75 % 0 mm 0.0 W/m2 CLR
02:32 -18.1 °C -20.2 °C 34693 hPa Calm     75 % 0 mm 0.0 W/m2 CLR
02:37 -18.1 °C -20.2 °C 34703.1 hPa Calm     75 % 0 mm 0.0 W/m2 CLR
02:42 -18.1 °C -20.2 °C 34703.1 hPa Calm     75 % 0 mm 0.0 W/m2 CLR
02:47 -18.4 °C -20.6 °C 34703.1 hPa Calm     75 % 0 mm 0.0 W/m2 CLR
02:52 -18.4 °C -20.4 °C 34703.1 hPa Calm     76 % 0 mm 0.0 W/m2 CLR
02:57 -18.4 °C -20.4 °C 34703.1 hPa Calm     76 % 0 mm 0.0 W/m2 CLR
03:02 -18.1 °C -20.2 °C 34693 hPa Calm     76 % 0 mm 0.0 W/m2 CLR
03:07 -18.1 °C -20.2 °C 34703.1 hPa Calm     75 % 0 mm 0.0 W/m2 CLR
03:12 -18.1 °C -20.2 °C 34703.1 hPa Calm     75 % 0 mm 0.0 W/m2 CLR
03:17 -18.1 °C -20.1 °C 34693 hPa Calm     77 % 0 mm 0.0 W/m2 CLR
03:22 -18.1 °C -20.1 °C 34693 hPa Calm     77 % 0 mm 0.0 W/m2 CLR
03:27 -18.4 °C -20.3 °C 34703.1 hPa Calm     77 % 0 mm 0.0 W/m2 CLR
03:32 -18.4 °C -20.4 °C 34703.1 hPa Calm     76 % 0 mm 0.0 W/m2 CLR
03:37 -18.4 °C -20.4 °C 34693 hPa Calm     76 % 0 mm 0.0 W/m2 CLR
03:42 -18.4 °C -20.4 °C 34693 hPa Calm     76 % 0 mm 0.0 W/m2 CLR
03:47 -18.4 °C -20.4 °C 34703.1 hPa Calm     76 % 0 mm 0.0 W/m2 CLR
03:52 -18.7 °C -20.7 °C 34703.1 hPa Calm     76 % 0 mm 0.0 W/m2 CLR
03:57 -18.7 °C -20.7 °C 34703.1 hPa Calm     76 % 0 mm 0.0 W/m2 CLR
04:02 -18.7 °C -20.7 °C 34693 hPa Calm     77 % 0 mm 0.0 W/m2 CLR
04:07 -18.4 °C -20.2 °C 34693 hPa Calm     78 % 0 mm 0.0 W/m2 CLR
04:12 -18.4 °C -20.2 °C 34693 hPa Calm     78 % 0 mm 0.0 W/m2 CLR
04:18 -18.4 °C -20.4 °C 34693 hPa Calm     76 % 0 mm 0.0 W/m2 CLR
04:22 -18.4 °C -20.3 °C 34693 hPa Calm     77 % 0 mm 0.0 W/m2 CLR
04:23 -18.4 °C -20.3 °C 34693 hPa Calm     77 % 0 mm 0.0 W/m2 CLR
04:24 -18.4 °C -20.3 °C 34693 hPa Calm     77 % 0 mm 0.0 W/m2 CLR
04:27 -18.4 °C -20.3 °C 34693 hPa Calm     77 % 0 mm 0.0 W/m2 CLR
04:31 -18.4 °C -20.3 °C 34693 hPa Calm     77 % 0 mm 0.0 W/m2 CLR
04:36 -18.4 °C -20.4 °C 34693 hPa Calm     76 % 0 mm 0.0 W/m2 CLR
04:41 -18.4 °C -20.3 °C 34693 hPa Calm     77 % 0 mm 0.0 W/m2 CLR
04:46 -18.4 °C -20.3 °C 34693 hPa Calm     77 % 0 mm 0.0 W/m2 CLR
04:51 -18.4 °C -20.2 °C 34693 hPa Calm     78 % 0 mm 0.0 W/m2 CLR
04:56 -18.4 °C -20.2 °C 34693 hPa Calm     78 % 0 mm 0.0 W/m2 CLR
05:01 -18.4 °C -20.2 °C 34693 hPa Calm     78 % 0 mm 0.0 W/m2 CLR
05:06 -18.4 °C -20.1 °C 34693 hPa Calm     80 % 0 mm 0.0 W/m2 CLR
05:11 -18.4 °C -20.1 °C 34693 hPa Calm     80 % 0 mm 0.0 W/m2 CLR
05:16 -18.4 °C -20.2 °C 34693 hPa Calm     79 % 0 mm 0.0 W/m2 CLR
05:21 -18.4 °C -20.2 °C 34693 hPa Calm     79 % 0 mm 0.0 W/m2 CLR
05:26 -18.4 °C -20.2 °C 34682.8 hPa Calm     79 % 0 mm 0.0 W/m2 CLR
05:31 -18.4 °C -20.2 °C 34693 hPa Calm     78 % 0 mm 0.0 W/m2 CLR
05:36 -18.4 °C -20.2 °C 34693 hPa Calm     79 % 0 mm 0.0 W/m2 CLR
05:41 -18.7 °C -20.4 °C 34693 hPa Calm     79 % 0 mm 0.0 W/m2 CLR
05:46 -18.7 °C -20.3 °C 34693 hPa Calm     81 % 0 mm 0.0 W/m2 CLR
05:51 -18.7 °C -20.3 °C 34682.8 hPa Calm     81 % 0 mm 0.0 W/m2 CLR
05:56 -18.7 °C -20.3 °C 34682.8 hPa Calm     81 % 0 mm 0.0 W/m2 CLR
06:01 -18.7 °C -20.4 °C 34682.8 hPa Calm     79 % 0 mm 0.0 W/m2 CLR
06:06 -18.7 °C -20.6 °C 34682.8 hPa Calm     78 % 0 mm 0.0 W/m2 CLR
06:11 -18.7 °C -20.4 °C 34693 hPa Calm     80 % 0 mm 0.0 W/m2 CLR
06:16 -18.7 °C -20.4 °C 34693 hPa Calm     80 % 0 mm 0.0 W/m2 CLR
06:21 -18.7 °C -20.4 °C 34693 hPa Calm     80 % 0 mm 0.0 W/m2 CLR
06:26 -18.7 °C -20.4 °C 34693 hPa Calm     79 % 0 mm 0.0 W/m2 CLR
06:31 -18.7 °C -20.4 °C 34693 hPa Calm     80 % 0 mm 0.0 W/m2 CLR
06:37 -18.7 °C -20.3 °C 34693 hPa Calm     81 % 0 mm 0.0 W/m2 CLR
06:42 -18.7 °C -20.4 °C 34693 hPa Calm     80 % 0 mm 0.0 W/m2 CLR
06:47 -18.7 °C -20.4 °C 34693 hPa Calm     80 % 0 mm 0.0 W/m2 CLR
06:52 -18.7 °C -20.3 °C 34693 hPa Calm     81 % 0 mm 0.0 W/m2 CLR
06:57 -18.7 °C -20.3 °C 34693 hPa Calm     81 % 0 mm 0.0 W/m2 CLR
07:02 -18.7 °C -20.3 °C 34693 hPa Calm     81 % 0 mm 0.0 W/m2 CLR
07:07 -19 °C -20.5 °C 34693 hPa Calm     82 % 0 mm 0.0 W/m2 CLR
07:12 -19 °C -20.6 °C 34693 hPa Calm     81 % 0 mm 0.0 W/m2 CLR
07:17 -19 °C -20.6 °C 34693 hPa Calm     81 % 0 mm 0.0 W/m2 CLR
07:22 -19 °C -20.5 °C 34703.1 hPa Calm     82 % 0 mm 0.0 W/m2 CLR
07:27 -19 °C -20.5 °C 34703.1 hPa Calm     82 % 0 mm 0.0 W/m2 CLR
07:32 -19 °C -20.5 °C 34703.1 hPa Calm     82 % 0 mm 0.0 W/m2 CLR
07:37 -19.3 °C -20.9 °C 34703.1 hPa Calm     81 % 0 mm 0.0 W/m2 CLR
07:42 -19 °C -20.7 °C 34703.1 hPa Calm     80 % 0 mm 0.0 W/m2 OVC
07:47 -19 °C -20.7 °C 34703.1 hPa Calm     80 % 0 mm 0.0 W/m2 OVC
07:52 -19 °C -20.6 °C 34703.1 hPa Calm     81 % 0 mm 5.0 W/m2 OVC
07:57 -19 °C -20.5 °C 34703.1 hPa Calm     82 % 0 mm 7.0 W/m2 OVC
08:02 -19 °C -20.5 °C 34703.1 hPa Calm     82 % 0 mm 11.0 W/m2 OVC
08:07 -19 °C -20.5 °C 34703.1 hPa Calm     82 % 0 mm 12.0 W/m2 OVC
08:11 -19 °C -20.5 °C 34703.1 hPa Calm     82 % 0 mm 12.0 W/m2 OVC
08:16 -18.7 °C -20.3 °C 34703.1 hPa Calm     81 % 0 mm 16.0 W/m2 OVC
08:17 -19 °C -20.7 °C 34703.1 hPa Calm     80 % 0 mm 16.0 W/m2 OVC
08:22 -19 °C -20.8 °C 34716.7 hPa Calm     79 % 0 mm 25.0 W/m2 OVC
08:27 -19 °C -20.9 °C 34716.7 hPa Calm     77 % 0 mm 37.0 W/m2 OVC
08:32 -18.7 °C -20.7 °C 34716.7 hPa Calm     77 % 0 mm 42.0 W/m2 OVC
08:37 -18.7 °C -20.7 °C 34716.7 hPa Calm     77 % 0 mm 56.0 W/m2 OVC
08:42 -19 °C -20.9 °C 34716.7 hPa Calm     78 % 0 mm 69.0 W/m2 OVC
08:47 -19 °C -20.9 °C 34716.7 hPa Calm     78 % 0 mm 67.0 W/m2 OVC
08:52 -18.7 °C -20.7 °C 34726.8 hPa Calm     76 % 0 mm 97.0 W/m2 BKN
08:57 -18.7 °C -20.8 °C 34726.8 hPa Calm     75 % 0 mm 109.0 W/m2 SCT
09:02 -18.1 °C -20.3 °C 34726.8 hPa Calm     74 % 0 mm 90.0 W/m2 CLR
09:03 -18.1 °C -20.3 °C 34726.8 hPa Calm     74 % 0 mm 90.0 W/m2 CLR
09:08 -17.8 °C -20.1 °C 34726.8 hPa Calm     74 % 0 mm 114.0 W/m2 CLR
09:13 -17.8 °C -20.2 °C 34726.8 hPa Calm     72 % 0 mm 128.0 W/m2 CLR
09:18 -17.4 °C -20.2 °C 34726.8 hPa Calm     70 % 0 mm 172.0 W/m2 CLR
09:23 -17.4 °C -20.5 °C 34726.8 hPa Calm     67 % 0 mm 188.0 W/m2 CLR
09:28 -17.2 °C -20.3 °C 34726.8 hPa Calm     66 % 0 mm 104.0 W/m2 CLR
09:33 -17.2 °C -20.4 °C 34726.8 hPa Calm     65 % 0 mm 220.0 W/m2 CLR
09:38 -17.2 °C -20.7 °C 34726.8 hPa Calm     63 % 0 mm 232.0 W/m2 CLR
09:48 -16.2 °C -20 °C 34726.8 hPa Calm     61 % 0 mm 262.0 W/m2 CLR
09:53 -15.9 °C -19.9 °C 34726.8 hPa Calm     59 % 0 mm 272.0 W/m2 CLR
09:58 -15.6 °C -19.8 °C 34726.8 hPa Calm     58 % 0 mm 285.0 W/m2 CLR
10:03 -15.3 °C -19.6 °C 34726.8 hPa Calm     57 % 0 mm 294.0 W/m2 CLR
10:08 -15 °C -19.5 °C 34726.8 hPa Calm     56 % 0 mm 302.0 W/m2 CLR
10:18 -14.4 °C -19.2 °C 34726.8 hPa Calm     54 % 0 mm 327.0 W/m2 CLR
10:23 -14.1 °C -18.9 °C 34726.8 hPa Calm     54 % 0 mm 339.0 W/m2 CLR
10:28 -13.8 °C -18.7 °C 34726.8 hPa Calm     53 % 0 mm 348.0 W/m2 CLR
10:33 -13.8 °C -18.7 °C 34726.8 hPa Calm     53 % 0 mm 360.0 W/m2 CLR
10:38 -13.2 °C -18.3 °C 34726.8 hPa Calm     52 % 0 mm 367.0 W/m2 CLR
10:43 -13.2 °C -18.4 °C 34726.8 hPa Calm     51 % 0 mm 374.0 W/m2 CLR
10:48 -12.8 °C -18.5 °C 34726.8 hPa Calm     49 % 0 mm 385.0 W/m2 CLR
10:53 -12.6 °C -18.4 °C 34726.8 hPa Calm     48 % 0 mm 394.0 W/m2 CLR
10:58 -12.6 °C -18.7 °C 34726.8 hPa Calm     46 % 0 mm 403.0 W/m2 CLR
11:03 -11.9 °C -18.3 °C 34726.8 hPa Calm     45 % 0 mm 411.0 W/m2 CLR
11:08 -11.9 °C -18.8 °C 34726.8 hPa NNW 20.9 km/h 20.9 km/h 42 % 0 mm 417.0 W/m2 CLR
11:13 -11 °C -18.2 °C 34726.8 hPa NW 29.8 km/h 29.8 km/h 41 % 0 mm 422.0 W/m2 CLR
11:18 -10.4 °C -17.6 °C 34726.8 hPa NW 29.8 km/h 29.8 km/h 41 % 0 mm 431.0 W/m2 CLR
11:23 -10.1 °C -17.3 °C 34726.8 hPa NNW 29.8 km/h 29.8 km/h 41 % 0 mm 436.0 W/m2 CLR
11:28 -10.1 °C -17.5 °C 34726.8 hPa NNW 29.8 km/h 29.8 km/h 40 % 0 mm 443.0 W/m2 CLR
11:33 -9.8 °C -17.2 °C 34726.8 hPa NNW 38.8 km/h 38.8 km/h 40 % 0 mm 448.0 W/m2 CLR
11:38 -9.8 °C -17.2 °C 34716.7 hPa NNW 29.8 km/h 29.8 km/h 40 % 0 mm 454.0 W/m2 CLR
11:43 -9.4 °C -17.1 °C 34716.7 hPa NNW 26.9 km/h 26.9 km/h 39 % 0 mm 459.0 W/m2 CLR
11:48 -9.4 °C -17.1 °C 34716.7 hPa West 20.9 km/h 20.9 km/h 39 % 0 mm 462.0 W/m2 CLR
11:53 -9.4 °C -17.3 °C 34716.7 hPa WNW 26.9 km/h 26.9 km/h 38 % 0 mm 468.0 W/m2 CLR
11:58 -9.4 °C -17.3 °C 34716.7 hPa NNW 29.8 km/h 29.8 km/h 38 % 0 mm 471.0 W/m2 CLR
12:03 -9.4 °C -17.3 °C 34703.1 hPa NW 26.9 km/h 26.9 km/h 38 % 0 mm 476.0 W/m2 CLR
12:08 -9.1 °C -17.1 °C 34703.1 hPa NNW 29.8 km/h 29.8 km/h 38 % 0 mm 478.0 W/m2 CLR
12:13 -9.1 °C -17.1 °C 34703.1 hPa NW 29.8 km/h 29.8 km/h 38 % 0 mm 482.0 W/m2 CLR
12:23 -9.1 °C -17.1 °C 34703.1 hPa NNW 29.8 km/h 29.8 km/h 38 % 0 mm 487.0 W/m2 CLR
12:28 -9.1 °C -17.1 °C 34703.1 hPa WNW 23.8 km/h 23.8 km/h 38 % 0 mm 487.0 W/m2 CLR
12:33 -9.1 °C -17.1 °C 34703.1 hPa North 28.5 km/h 28.5 km/h 38 % 0 mm 489.0 W/m2 CLR
12:38 -8.8 °C -16.8 °C 34693 hPa NW 18.2 km/h 18.2 km/h 38 % 0 mm 490.0 W/m2 CLR
12:43 -8.8 °C -17 °C 34693 hPa NNW 26.9 km/h 26.9 km/h 37 % 0 mm 490.0 W/m2 CLR
12:48 -9.1 °C -17.3 °C 34693 hPa NW 28.5 km/h 28.5 km/h 37 % 0 mm 490.0 W/m2 CLR
12:53 -9.1 °C -17.3 °C 34693 hPa NW 35.7 km/h 35.7 km/h 37 % 0 mm 490.0 W/m2 CLR
12:58 -8.8 °C -17 °C 34693 hPa NW 33.6 km/h 33.6 km/h 37 % 0 mm 489.0 W/m2 CLR
13:03 -8.8 °C -17 °C 34693 hPa NW 29.8 km/h 29.8 km/h 37 % 0 mm 489.0 W/m2 CLR
13:08 -8.5 °C -16.7 °C 34682.8 hPa NW 28.5 km/h 28.5 km/h 37 % 0 mm 487.0 W/m2 CLR
13:13 -8.5 °C -16.9 °C 34682.8 hPa NW 26.9 km/h 26.9 km/h 36 % 0 mm 485.0 W/m2 CLR
13:18 -8.5 °C -16.9 °C 34682.8 hPa North 31.1 km/h 31.1 km/h 36 % 0 mm 482.0 W/m2 CLR
13:23 -8.5 °C -16.9 °C 34682.8 hPa NNW 23.8 km/h 23.8 km/h 36 % 0 mm 480.0 W/m2 CLR
13:28 -8.5 °C -17.2 °C 34682.8 hPa NW 23.8 km/h 23.8 km/h 35 % 0 mm 476.0 W/m2 CLR
13:33 -8.5 °C -16.9 °C 34682.8 hPa North 33.6 km/h 33.6 km/h 36 % 0 mm 475.0 W/m2 CLR
13:38 -8.2 °C -16.7 °C 34669.3 hPa NNW 29.8 km/h 29.8 km/h 36 % 0 mm 469.0 W/m2 CLR
13:43 -8.5 °C -16.9 °C 34669.3 hPa North 26.9 km/h 26.9 km/h 36 % 0 mm 466.0 W/m2 CLR
13:48 -8.2 °C -16.9 °C 34669.3 hPa North 29.8 km/h 29.8 km/h 35 % 0 mm 462.0 W/m2 CLR
13:53 -8.2 °C -16.9 °C 34669.3 hPa NW 29.8 km/h 29.8 km/h 35 % 0 mm 457.0 W/m2 CLR
13:58 -8.2 °C -16.9 °C 34669.3 hPa North 23.8 km/h 23.8 km/h 35 % 0 mm 450.0 W/m2 CLR
14:03 -8.2 °C -16.9 °C 34669.3 hPa NW 23.8 km/h 23.8 km/h 35 % 0 mm 443.0 W/m2 CLR
14:08 -8.2 °C -16.9 °C 34659.1 hPa NNW 29.8 km/h 29.8 km/h 35 % 0 mm 434.0 W/m2 CLR
14:13 -8.2 °C -16.9 °C 34659.1 hPa NW 32.8 km/h 32.8 km/h 35 % 0 mm 427.0 W/m2 CLR
14:18 -8.2 °C -16.9 °C 34659.1 hPa NW 29.8 km/h 29.8 km/h 35 % 0 mm 424.0 W/m2 CLR
14:23 -8.2 °C -16.9 °C 34659.1 hPa North 20.9 km/h 20.9 km/h 35 % 0 mm 418.0 W/m2 CLR
14:28 -8.2 °C -16.9 °C 34645.6 hPa NNW 23.8 km/h 23.8 km/h 35 % 0 mm 411.0 W/m2 CLR
14:33 -7.9 °C -16.8 °C 34645.6 hPa North 29.8 km/h 29.8 km/h 34 % 0 mm 403.0 W/m2 CLR
14:38 -7.9 °C -16.8 °C 34645.6 hPa North 32.8 km/h 32.8 km/h 34 % 0 mm 396.0 W/m2 CLR
14:43 -8.2 °C -17.1 °C 34645.6 hPa NW 26.9 km/h 26.9 km/h 34 % 0 mm 388.0 W/m2 CLR
14:48 -8.2 °C -17.1 °C 34645.6 hPa North 29.8 km/h 29.8 km/h 34 % 0 mm 378.0 W/m2 CLR
14:53 -8.5 °C -17.4 °C 34645.6 hPa North 41.7 km/h 41.7 km/h 34 % 0 mm 369.0 W/m2 CLR
14:58 -8.2 °C -17.1 °C 34645.6 hPa North 41.7 km/h 41.7 km/h 34 % 0 mm 359.0 W/m2 CLR
15:03 -8.2 °C -17.1 °C 34645.6 hPa North 44.7 km/h 44.7 km/h 34 % 0 mm 350.0 W/m2 CLR
15:08 -8.2 °C -17.1 °C 34645.6 hPa NNW 38.8 km/h 38.8 km/h 34 % 0 mm 338.0 W/m2 CLR
15:13 -8.2 °C -17.1 °C 34635.4 hPa NNW 26.9 km/h 26.9 km/h 34 % 0 mm 330.0 W/m2 CLR
15:18 -8.2 °C -17.1 °C 34635.4 hPa NNW 20.9 km/h 20.9 km/h 34 % 0 mm 315.0 W/m2 CLR
15:23 -8.2 °C -17.3 °C 34635.4 hPa North 23.8 km/h 23.8 km/h 33 % 0 mm 308.0 W/m2 CLR
15:28 -8.2 °C -17.3 °C 34635.4 hPa North 17.9 km/h 17.9 km/h 33 % 0 mm 297.0 W/m2 CLR
15:33 -8.2 °C -17.1 °C 34635.4 hPa North 23.8 km/h 23.8 km/h 34 % 0 mm 287.0 W/m2 CLR
15:38 -8.2 °C -17.3 °C 34635.4 hPa North 26.9 km/h 26.9 km/h 33 % 0 mm 272.0 W/m2 CLR
15:43 -8.2 °C -17.3 °C 34635.4 hPa NNW 23.8 km/h 23.8 km/h 33 % 0 mm 260.0 W/m2 CLR
15:49 -8.2 °C -17.3 °C 34635.4 hPa North 3.1 km/h   33 % 0 mm 246.0 W/m2 CLR
15:54 -8.2 °C -17.3 °C 34625.2 hPa North 9 km/h 9 km/h 33 % 0 mm 234.0 W/m2 CLR
15:59 -8.2 °C -17.3 °C 34625.2 hPa NNW 6 km/h   33 % 0 mm 220.0 W/m2 CLR
16:04 -8.5 °C -17.6 °C 34625.2 hPa Calm     33 % 0 mm 202.0 W/m2 CLR
16:09 -8.8 °C -17.9 °C 34625.2 hPa Calm     33 % 0 mm 188.0 W/m2 CLR
16:14 -8.8 °C -17.9 °C 34625.2 hPa Calm     33 % 0 mm 174.0 W/m2 CLR
16:19 -9.1 °C -17.9 °C 34625.2 hPa Calm     34 % 0 mm 160.0 W/m2 CLR
16:24 -9.1 °C -17.9 °C 34625.2 hPa Calm     34 % 0 mm 142.0 W/m2 CLR
16:29 -9.4 °C -18.2 °C 34625.2 hPa Calm     34 % 0 mm 128.0 W/m2 CLR
16:34 -9.4 °C -18.2 °C 34625.2 hPa Calm     34 % 0 mm 114.0 W/m2 CLR
16:39 -9.8 °C -18.4 °C 34625.2 hPa Calm     34 % 0 mm 102.0 W/m2 CLR
16:44 -9.8 °C -18.2 °C 34625.2 hPa Calm     35 % 0 mm 90.0 W/m2 CLR
16:49 -10.1 °C -18.5 °C 34625.2 hPa Calm     35 % 0 mm 67.0 W/m2 FEW
16:54 -10.4 °C -18.6 °C 34625.2 hPa Calm     36 % 0 mm 54.0 W/m2 SCT
16:59 -10.4 °C -18.6 °C 34625.2 hPa Calm     36 % 0 mm 47.0 W/m2 SCT
17:04 -11 °C -19.1 °C 34625.2 hPa Calm     36 % 0 mm 37.0 W/m2 BKN
17:09 -11.3 °C -19.2 °C 34625.2 hPa Calm     37 % 0 mm 26.0 W/m2 BKN
17:14 -11.6 °C -19.5 °C 34625.2 hPa Calm     37 % 0 mm 19.0 W/m2 BKN
17:19 -11.9 °C -19.8 °C 34625.2 hPa Calm     37 % 0 mm 12.0 W/m2 BKN
17:21 -11.9 °C -19.6 °C 34625.2 hPa Calm     38 % 0 mm 12.0 W/m2 BKN
17:26 -12.2 °C -19.8 °C 34625.2 hPa Calm     38 % 0 mm 9.0 W/m2 BKN
17:31 -12.6 °C -19.9 °C 34625.2 hPa Calm     39 % 0 mm 7.0 W/m2 BKN
17:36 -12.8 °C -20.2 °C 34625.2 hPa Calm     39 % 0 mm 5.0 W/m2 OVC
17:41 -13.2 °C -20.3 °C 34625.2 hPa Calm     40 % 0 mm 0.0 W/m2 OVC
17:46 -13.2 °C -20.1 °C 34625.2 hPa Calm     41 % 0 mm 0.0 W/m2 OVC
17:51 -13.4 °C -20.2 °C 34625.2 hPa Calm     42 % 0 mm 0.0 W/m2 CLR
17:56 -13.4 °C -20.2 °C 34625.2 hPa Calm     42 % 0 mm 0.0 W/m2 CLR
18:01 -13.4 °C -20.1 °C 34625.2 hPa Calm     43 % 0 mm 0.0 W/m2 CLR
18:06 -13.8 °C -20.3 °C 34635.4 hPa Calm     43 % 0 mm 0.0 W/m2 CLR
18:11 -13.8 °C -20.3 °C 34635.4 hPa Calm     43 % 0 mm 0.0 W/m2 CLR
18:16 -13.8 °C -20.3 °C 34635.4 hPa Calm     43 % 0 mm 0.0 W/m2 CLR
18:21 -14.1 °C -20.4 °C 34635.4 hPa Calm     44 % 0 mm 0.0 W/m2 CLR
18:26 -14.4 °C -20.7 °C 34635.4 hPa Calm     44 % 0 mm 0.0 W/m2 CLR
18:31 -14.4 °C -20.5 °C 34635.4 hPa Calm     45 % 0 mm 0.0 W/m2 CLR
18:41 -14.7 °C -20.3 °C 34645.6 hPa Calm     48 % 0 mm 0.0 W/m2 CLR
18:47 -14.4 °C -19.9 °C 34635.4 hPa Calm     49 % 0 mm 0.0 W/m2 CLR
18:52 -14.7 °C -20.1 °C 34645.6 hPa Calm     50 % 0 mm 0.0 W/m2 CLR
18:57 -14.7 °C -19.9 °C 34645.6 hPa Calm     51 % 0 mm 0.0 W/m2 CLR
19:02 -15 °C -20.2 °C 34645.6 hPa Calm     51 % 0 mm 0.0 W/m2 CLR
19:07 -15.3 °C -20.3 °C 34645.6 hPa Calm     52 % 0 mm 0.0 W/m2 CLR
19:12 -15.3 °C -20.3 °C 34645.6 hPa Calm     52 % 0 mm 0.0 W/m2 CLR
19:17 -15.6 °C -20.4 °C 34645.6 hPa Calm     53 % 0 mm 0.0 W/m2 CLR
19:22 -15.6 °C -20.4 °C 34645.6 hPa Calm     53 % 0 mm 0.0 W/m2 CLR
19:27 -15.9 °C -20.6 °C 34645.6 hPa Calm     54 % 0 mm 0.0 W/m2 CLR
19:32 -15.9 °C -20.6 °C 34645.6 hPa Calm     54 % 0 mm 0.0 W/m2 CLR
19:37 -16.2 °C -20.9 °C 34645.6 hPa Calm     54 % 0 mm 0.0 W/m2 CLR
19:42 -16.2 °C -20.8 °C 34659.1 hPa Calm     55 % 0 mm 0.0 W/m2 CLR
19:47 -16.2 °C -20.7 °C 34659.1 hPa Calm     56 % 0 mm 0.0 W/m2 CLR
19:52 -16.2 °C -20.7 °C 34669.3 hPa Calm     56 % 0 mm 0.0 W/m2 CLR
19:57 -16.2 °C -20.7 °C 34669.3 hPa Calm     56 % 0 mm 0.0 W/m2 CLR
20:02 -16.2 °C -20.5 °C 34669.3 hPa Calm     57 % 0 mm 0.0 W/m2 CLR
20:07 -16.2 °C -20.5 °C 34659.1 hPa Calm     57 % 0 mm 0.0 W/m2 CLR
20:12 -16.2 °C -20.5 °C 34659.1 hPa Calm     57 % 0 mm 0.0 W/m2 CLR
20:17 -16.2 °C -20.4 °C 34659.1 hPa Calm     58 % 0 mm 0.0 W/m2 CLR
20:22 -16.2 °C -20.4 °C 34659.1 hPa Calm     58 % 0 mm 0.0 W/m2 CLR
20:27 -16.2 °C -20.4 °C 34659.1 hPa Calm     58 % 0 mm 0.0 W/m2 CLR
20:32 -16.2 °C -20.4 °C 34659.1 hPa Calm     58 % 0 mm 0.0 W/m2 CLR
20:33 -16.2 °C -20.4 °C 34659.1 hPa Calm     58 % 0 mm 0.0 W/m2 CLR
20:38 -16.2 °C -20.2 °C 34659.1 hPa Calm     59 % 0 mm 0.0 W/m2 CLR
20:43 -16.2 °C -20.2 °C 34659.1 hPa Calm     59 % 0 mm 0.0 W/m2 CLR
20:48 -16.2 °C -20.2 °C 34659.1 hPa Calm     59 % 0 mm 0.0 W/m2 CLR
20:53 -16.2 °C -20.2 °C 34659.1 hPa Calm     59 % 0 mm 0.0 W/m2 CLR
20:58 -16.2 °C -20.2 °C 34659.1 hPa Calm     59 % 0 mm 0.0 W/m2 CLR
21:03 -16.6 °C -20.6 °C 34659.1 hPa Calm     59 % 0 mm 0.0 W/m2 CLR
21:08 -16.6 °C -20.4 °C 34659.1 hPa Calm     60 % 0 mm 0.0 W/m2 CLR
21:13 -16.6 °C -20.4 °C 34659.1 hPa Calm     60 % 0 mm 0.0 W/m2 CLR
21:18 -16.6 °C -20.4 °C 34659.1 hPa Calm     60 % 0 mm 0.0 W/m2 CLR
21:23 -16.6 °C -20.3 °C 34659.1 hPa Calm     61 % 0 mm 0.0 W/m2 CLR
21:28 -16.2 °C -20 °C 34659.1 hPa Calm     61 % 0 mm 0.0 W/m2 CLR
21:33 -16.2 °C -20 °C 34659.1 hPa Calm     61 % 0 mm 0.0 W/m2 CLR
21:38 -15.9 °C -19.7 °C 34669.3 hPa Calm     61 % 0 mm 0.0 W/m2 CLR
21:43 -15.9 °C -19.6 °C 34669.3 hPa Calm     62 % 0 mm 0.0 W/m2 CLR
21:48 -15.6 °C -19.4 °C 34669.3 hPa Calm     61 % 0 mm 0.0 W/m2 CLR
21:53 -15.9 °C -19.7 °C 34669.3 hPa Calm     61 % 0 mm 0.0 W/m2 CLR
21:58 -15.9 °C -19.7 °C 34659.1 hPa Calm     61 % 0 mm 0.0 W/m2 CLR
22:03 -15.9 °C -19.7 °C 34669.3 hPa Calm     61 % 0 mm 0.0 W/m2 CLR
22:08 -15.9 °C -19.7 °C 34669.3 hPa Calm     61 % 0 mm 0.0 W/m2 CLR
22:13 -15.9 °C -19.7 °C 34669.3 hPa Calm     61 % 0 mm 0.0 W/m2 CLR
22:18 -15.9 °C -19.6 °C 34669.3 hPa Calm     62 % 0 mm 0.0 W/m2 CLR
22:23 -16.2 °C -19.8 °C 34669.3 hPa Calm     63 % 0 mm 0.0 W/m2 CLR
22:28 -16.2 °C -19.7 °C 34669.3 hPa Calm     64 % 0 mm 0.0 W/m2 CLR
22:33 -16.2 °C -19.7 °C 34669.3 hPa Calm     64 % 0 mm 0.0 W/m2 CLR
22:38 -16.2 °C -19.4 °C 34682.8 hPa Calm     66 % 0 mm 0.0 W/m2 CLR
22:43 -16.2 °C -19.4 °C 34682.8 hPa Calm     66 % 0 mm 0.0 W/m2 CLR
22:48 -16.2 °C -19.4 °C 34682.8 hPa Calm     66 % 0 mm 0.0 W/m2 CLR
22:53 -16.6 °C -19.7 °C 34682.8 hPa Calm     66 % 0 mm 0.0 W/m2 CLR
22:58 -16.6 °C -19.6 °C 34682.8 hPa Calm     67 % 0 mm 0.0 W/m2 CLR
23:03 -16.6 °C -19.6 °C 34682.8 hPa Calm     67 % 0 mm 0.0 W/m2 CLR
23:08 -16.6 °C -19.4 °C 34682.8 hPa Calm     69 % 0 mm 0.0 W/m2 CLR
23:13 -16.6 °C -19.5 °C 34682.8 hPa Calm     68 % 0 mm 0.0 W/m2 CLR
23:18 -16.6 °C -19.6 °C 34682.8 hPa Calm     67 % 0 mm 0.0 W/m2 CLR
23:23 -16.6 °C -19.6 °C 34682.8 hPa Calm     67 % 0 mm 0.0 W/m2 CLR
23:28 -16.6 °C -19.7 °C 34682.8 hPa Calm     66 % 0 mm 0.0 W/m2 CLR
23:33 -16.6 °C -19.6 °C 34682.8 hPa Calm     67 % 0 mm 0.0 W/m2 CLR
23:38 -16.2 °C -19.3 °C 34682.8 hPa Calm     67 % 0 mm 0.0 W/m2 CLR
23:43 -16.6 °C -19.6 °C 34682.8 hPa Calm     67 % 0 mm 0.0 W/m2 CLR
23:48 -16.6 °C -19.8 °C 34682.8 hPa Calm     65 % 0 mm 0.0 W/m2 CLR
23:53 -16.6 °C -19.7 °C 34682.8 hPa Calm     66 % 0 mm 0.0 W/m2 CLR
23:58 -16.8 °C -19.8 °C 34682.8 hPa Calm     68 % 0 mm 0.0 W/m2 CLR
Lo Temps de Massalio
Compliments of Weather Underground - 1.25 mb